Flag for Romania Weather past 2 weeks in Iasi, Romania

36 °F

Passing clouds.

Feels Like: 33 °F
Forecast: 36 / 38 °F
Wind: 3 mph from Northeast

Location: Iasi Airport

Current Time: Nov 26, 2015 at 12:25:15 AM

Latest Report: Nov 25, 2015 at 11:00 PM

Visibility: 4 mi

Pressure: 29.92 "Hg

Humidity: 100%

Dew point: 36 °F

Location of IasiLocation

Historic Weather in Iasi — Graph


Iasi temperature yesterday

Maximum temperature yesterday: 36 °F (at 12:00 AM)
Minimum temperature yesterday: 34 °F (at 4:00 AM)
Average temperature yesterday: 35 °F

Past Weeks' High & Low Weather Summary

High68 °F (Nov 12, 3:00 PM)100% (Nov 17, 4:00 AM)30.36 "Hg (Nov 17, 4:00 AM)
Low30 °F (Nov 17, 6:00 AM)28% (Nov 20, 12:30 PM)29.24 "Hg (Nov 21, 1:00 PM)
Average48 °F75%29.94 "Hg
* Reported Nov 10 11:00 PM — Nov 25 11:00 PM, Iasi, Weather by CustomWeather, © 2015

Note: Actual official high and low records may vary slightly from our data, if they occured in-between our weather recording intervals... More about our weather records


Iasi weather history for previous 24 hours

Time TempWeatherWind HumidityBarometerVisibility
11:00 PM
Wed, Nov 25
36 °FPassing clouds.3 mph100%29.92 "Hg4 mi
9:00 PM36 °FFog.3 mph100%29.92 "Hg3 mi
8:30 PM36 °FFog.5 mph100%29.92 "Hg3 mi
8:00 PM36 °FPassing clouds.5 mph100%29.92 "Hg4 mi
7:30 PM36 °FPartly cloudy.2 mph100%29.95 "Hg5 mi
7:00 PM36 °FPartly cloudy.2 mph93%29.95 "Hg4 mi
6:30 PM36 °FPassing clouds.3 mph100%29.95 "Hg6 mi
6:00 PM36 °FMostly cloudy.5 mph93%29.95 "Hg6 mi
5:30 PM36 °FMostly cloudy.5 mph100%29.95 "Hg6 mi
5:00 PM36 °FPassing clouds.5 mph93%29.95 "Hg6 mi
4:30 PM36 °FPassing clouds.6 mph100%29.95 "Hg5 mi
4:00 PM36 °FMore clouds than sun.6 mph100%29.98 "Hg5 mi
3:30 PM36 °FMostly cloudy.7 mph100%29.98 "Hg4 mi
3:00 PM36 °FMore clouds than sun.7 mph100%29.98 "Hg4 mi
2:30 PM36 °FLight rain. More clouds than sun.6 mph100%29.98 "Hg4 mi
2:00 PM36 °FLight rain. More clouds than sun.5 mph100%29.98 "Hg4 mi
1:30 PM34 °FLight rain. Fog.3 mph100%30.01 "Hg2 mi
1:00 PM34 °FLight rain. Fog.2 mph100%30.01 "Hg1 mi
12:30 PM34 °FLight rain. Fog.1 mph100%30.01 "Hg2 mi
12:00 PM34 °FRain. Fog.2 mph100%30.04 "Hg1 mi
11:30 AM34 °FLight rain. Fog.3 mph100%30.04 "Hg2 mi
11:00 AM34 °FLight rain. Mostly cloudy.2 mph100%30.07 "Hg4 mi
10:30 AM34 °FLight snow. Fog.2 mph100%30.07 "Hg2 mi
10:00 AM34 °FLight rain. Fog.3 mph100%30.07 "Hg3 mi
9:30 AM34 °FLight snow. More clouds than sun.5 mph100%30.07 "Hg4 mi
9:00 AM34 °FLight snow. Fog.8 mph100%30.07 "Hg2 mi
8:30 AM34 °FLight snow. Fog.7 mph100%30.07 "Hg3 mi
8:00 AM34 °FLight rain. More clouds than sun.5 mph100%30.07 "Hg4 mi
7:30 AM34 °FLight rain. Fog.5 mph100%30.09 "Hg3 mi
7:00 AM34 °FLight rain. Fog.3 mph100%30.09 "Hg1 mi
6:30 AM34 °FLight snow. Fog.3 mph100%30.09 "Hg3 mi
6:00 AM34 °FLight rain. Passing clouds.5 mph100%30.09 "Hg2 mi
5:30 AM34 °FLight rain. Passing clouds.5 mph100%30.12 "Hg2 mi
5:00 AM34 °FLight rain. Fog.5 mph100%30.12 "Hg3 mi
4:00 AM34 °FLight rain. Passing clouds.6 mph100%30.12 "Hg4 mi
3:00 AM36 °FPartly cloudy.2 mph93%30.15 "HgN/A
2:00 AM36 °FPassing clouds.3 mph93%30.15 "HgN/A
1:00 AM36 °FPassing clouds.9 mph93%30.18 "HgN/A
12:00 AM36 °FLight rain. Passing clouds.7 mph93%30.21 "HgN/A
Weather by CustomWeather, © 2015

See weather overviewHow to use our weather pages